Погода в Ояме

Япония     36°18′54″N   139°48′12″E
темп.,
°C
ветер,
м/с
пор.,
м/с
влажн.,
%
обл.,
%
осадки,
мм/ч
давл.,
гПа
погр.,
м
18 апреля, вс
вс1800:00+16ю51396100 14.8 10001024
03:00+14зюз36910 16.5 997234
06:00+13з397310 0.1 998376
09:00+17з816230 0.1 9992324
12:00+20з7121642 0.0 9973647
15:00+18зсз914186 0.0 9973438
18:00+16з6182669 0.0 9993124
21:00+13з82036100 0.0 10022302
19 апреля, пн
пн1900:00+12з81042100 0.0 10031328
03:00+12з610380 0.0 1006821
06:00+12зсз614380 0.0 10091484
09:00+15зсз712280 0.0 10111882
12:00+20сз610194 0.0 10102990
15:00+21сз58170 0.0 10102858
18:00+19с34220 0.0 1012624
21:00+17ю25354 0.0 1014241
20 апреля, вт
вт2000:00+15ю25550 0.0 1015229
03:00+13сз11540 0.0 101546
06:00+13з12480 0.0 1016139
09:00+17юз23300 0.0 1017768
12:00+22юз33200 0.0 10151298
15:00+25ююз34155 0.0 10131948
18:00+23ю342275 0.0 1014285
21:00+20с37310 0.0 1017312
21 апреля, ср
ср2100:00+16св36490 0.0 1019331
03:00+15всв13500 0.0 1020207
06:00+13св34510 0.0 1022311
09:00+18ююз12350 0.0 10221075
12:00+22ссв03150 0.0 10201469
15:00+25ссв1590 0.0 10172690
18:00+22всв44160 0.0 1017827
21:00+18всв36250 0.0 1019485
22 апреля, чт
чт2200:00+16с243397 0.0 1019287
03:00+14з132774 0.0 1018188
06:00+14зсз232668 0.0 1017188
09:00+21зсз571355 0.0 10161231
12:00+24зсз69135 0.0 10142510
15:00+24сз591376 0.0 10133132
18:00+20сз47197 0.0 10151943
21:00+15всв562963 0.0 1019999